CZ-4C DEB (44213 NORAD) Tracking and Keplerian Element Data

This shows tracking and keplerian element data for the satellite.

Feedback or suggestion? Click here.




ElementValue
Catalog44213
NameCZ-4C DEB
Epoch Orbit431
Epoch Day148.81300135
Epoch Year2019
RAAN155.781
Inclination97.3704
Eccentricity0.0020341
Argument of Perigee292.6075
Mean Anonmoly67.3024
Mean Motion15.20992133
Decay Rate7.14E-06
L11 44213U 19024G 19148.81300135 .00000714 00000-0 35164-4 0 9999
L22 44213 97.3704 155.7810 0020341 292.6075 67.3024 15.20992133 4319

Live tracking and technical data element details for CZ-4C DEB (NORAD 44213). CZ-4C DEB can be tracked NOW for your location showing map with azimuth and elevation plus other details from your city location.

Track the satellite on the map from your city or location and see movement details for azimuth, elevation, latitude, longitude, range, height, and movement on the map or in text.







IsCatalogInMostPopularTable: catalog: 44213, numindb: 14
Update: records affected: 1



GetName: 44213 CZ-4C DEB

Hit Count: updated at: Sat, 20 Jul 2019 22:44:37 GMT